Theta_e
316 316 316 316 316 316 315 315 315 315 315 316 317 317 317 317 318 318 317 317 317 317 317 317 317 316 316 315 315 314 313 312 311 310 311 312 312 313 313 314 314 314 314 314 314 313 312 312 312 312 312 311 310 310 310 311 311 312 313 314 314 313 313 313 312 312 312 311 311 310 310 309 309 309 309 308 308 308 307 307 307 307 306 306 305 305
316 316 316 316 316 316 315 315 315 315 316 316 317 317 317 317 318 318 318 317 317 316 316 316 316 316 315 315 315 314 314 312 311 310 311 311 312 312 313 313 313 313 313 313 313 312 312 312 311 311 311 310 310 310 310 310 311 312 312 313 312 312 311 311 311 311 311 310 310 309 309 309 308 308 308 308 308 308 307 307 307 306 306 305 305 305
315 315 316 316 316 316 315 315 316 316 316 316 317 317 317 317 317 317 318 317 317 316 316 315 315 315 315 314 314 314 314 312 311 311 311 311 311 312 312 313 313 313 313 312 312 312 311 311 310 310 310 309 309 309 309 310 310 311 311 311 311 311 311 311 311 310 310 309 309 309 309 308 308 308 308 308 307 307 307 307 306 306 305 304 304 305
314 314 315 315 315 315 315 315 315 316 316 316 316 316 316 316 316 317 317 317 317 316 315 315 315 314 314 314 314 314 313 312 311 311 311 311 311 312 312 312 313 312 312 311 311 311 311 310 310 309 309 308 308 308 308 309 309 310 310 310 310 311 311 311 311 310 309 308 308 308 308 308 308 307 307 307 307 307 306 306 305 305 304 304 304 305
313 313 313 313 313 313 314 314 314 315 315 315 315 315 315 315 315 316 316 316 316 315 315 314 314 314 313 313 314 313 313 312 311 310 311 311 311 312 312 312 312 312 311 311 310 310 310 309 309 309 308 308 308 308 308 308 308 308 309 309 310 311 311 311 310 309 308 307 307 307 307 307 307 306 306 306 305 305 305 305 304 304 303 303 304 304
313 312 312 312 312 312 313 313 313 313 313 313 313 313 313 314 314 314 315 315 315 315 314 314 313 313 313 313 313 313 312 311 311 310 311 311 311 311 312 312 312 312 311 310 310 310 309 309 308 308 308 307 307 307 307 307 307 308 308 309 309 310 310 310 309 308 307 306 306 305 306 306 305 305 305 304 304 304 304 303 303 303 303 303 303 303
313 312 312 312 312 312 312 312 312 312 312 312 312 312 312 312 313 313 313 313 314 314 313 313 313 312 312 312 313 313 312 311 310 311 311 311 311 311 311 311 311 311 311 310 309 309 309 308 308 308 307 307 307 307 307 307 307 307 308 308 309 309 309 308 308 307 306 305 305 305 305 305 305 304 304 304 303 303 303 303 302 302 302 302 302 303
312 312 312 311 311 311 311 311 311 311 311 311 310 310 311 311 311 312 312 312 312 312 312 312 312 311 311 311 312 312 311 310 310 311 311 311 311 311 311 311 310 310 310 310 309 308 308 308 308 307 307 307 306 306 306 306 306 306 307 307 308 308 307 307 306 306 305 305 305 304 304 304 304 304 304 304 303 303 303 302 302 301 301 301 301 302
312 311 311 311 310 310 310 310 310 310 310 310 310 309 309 309 309 310 310 310 310 310 310 310 310 310 310 311 311 311 310 310 310 311 311 311 311 311 310 310 309 309 309 309 308 308 308 307 307 307 306 306 306 305 305 305 306 306 306 306 307 307 306 306 305 305 305 304 304 304 304 304 303 303 303 303 303 303 302 302 301 301 301 301 301 301
311 311 310 310 310 309 309 309 309 309 309 309 309 309 309 308 308 307 307 308 309 309 309 309 309 309 309 310 310 310 309 309 310 311 311 311 311 310 309 308 308 308 308 308 308 307 307 307 307 306 306 305 305 305 305 305 305 305 306 306 306 306 306 305 305 305 304 304 303 303 303 303 303 303 302 302 302 302 302 301 301 301 301 300 300 300
310 310 310 309 308 308 308 308 308 308 308 308 308 308 308 308 307 306 305 305 306 307 308 308 308 308 308 308 308 308 308 309 310 310 310 310 309 309 308 308 307 307 307 307 307 306 306 306 306 305 305 305 304 305 305 305 305 305 305 305 305 305 305 304 304 304 303 303 303 303 302 302 302 302 302 302 302 302 301 301 301 301 301 300 300 299
308 309 309 308 307 307 307 307 307 307 307 306 306 305 306 306 306 306 305 304 304 305 306 306 307 307 307 307 307 308 308 309 309 309 309 308 308 307 307 307 306 306 306 306 306 306 306 305 305 305 304 304 304 304 304 304 304 304 304 304 304 304 304 303 303 303 302 302 302 302 302 302 302 302 302 302 301 301 301 301 301 300 300 299 299 299
307 308 308 308 307 306 305 305 305 305 305 304 304 305 305 304 304 304 305 305 305 304 304 305 306 306 307 307 307 307 308 308 308 308 308 307 307 306 306 306 305 305 305 305 304 304 304 304 304 304 304 304 304 304 304 304 303 303 303 303 303 303 303 303 302 302 302 302 302 301 301 301 301 301 301 300 300 300 299 299 298 298 298 298 298 298
306 306 306 306 306 306 305 304 303 303 303 304 304 305 305 304 304 303 304 304 304 304 304 305 305 305 306 306 306 307 307 307 307 307 307 306 306 306 305 305 304 304 304 304 304 303 303 303 303 303 303 303 303 303 303 303 302 302 302 302 302 302 302 302 302 301 301 301 300 300 299 299 299 299 298 298 297 297 296 295 295 295 295 295 296 296
306 305 305 305 306 305 305 303 303 303 304 304 304 304 304 304 303 303 303 303 303 303 303 303 304 304 305 305 306 306 306 306 306 306 306 305 305 305 305 304 304 304 303 303 303 303 303 302 302 302 302 302 302 302 302 301 301 301 301 301 301 301 301 301 301 300 300 299 298 298 297 296 296 295 295 294 293 292 291 291 291 291 292 293 294 295
305 305 305 305 305 305 305 304 303 303 304 304 304 304 304 303 303 302 302 302 302 301 301 301 301 302 303 304 305 305 306 305 305 305 304 304 304 304 304 304 303 303 303 303 303 302 302 302 302 302 301 302 302 302 301 300 300 300 300 300 300 299 299 299 299 298 297 297 296 295 294 293 292 291 291 290 289 289 288 288 288 289 291 292 294 295
305 305 305 305 305 305 305 304 304 304 303 303 303 303 303 303 302 302 302 302 301 300 300 301 301 301 301 302 303 304 304 304 304 304 303 303 303 303 303 303 303 302 302 302 302 302 301 301 301 301 301 301 301 301 300 299 299 298 298 298 297 297 297 296 296 295 294 293 292 291 290 289 289 288 288 288 287 287 287 287 288 289 292 293 294 295
304 304 304 304 304 304 304 304 304 303 303 303 303 303 303 303 302 302 301 301 301 300 300 301 301 302 302 301 302 303 303 304 303 303 302 302 302 303 303 303 303 302 302 301 301 301 301 301 301 301 301 301 300 300 299 298 297 297 296 295 294 294 293 292 292 291 290 289 288 287 287 287 287 287 288 288 288 287 288 288 289 291 293 294 294 295
304 304 304 304 304 304 304 304 304 303 303 303 302 302 302 302 302 301 301 301 301 301 301 301 302 302 303 303 302 302 302 303 303 302 301 301 301 302 302 302 302 301 301 301 300 300 300 300 300 300 300 300 299 299 298 297 296 295 294 293 292 291 290 289 289 288 287 287 286 286 286 287 288 288 289 289 289 289 289 290 291 292 293 294 294 295
304 304 304 304 304 304 304 304 304 303 303 303 302 302 301 301 301 301 300 301 301 301 301 301 301 302 302 303 303 302 302 302 302 302 301 300 300 301 301 301 301 301 300 300 300 300 299 299 299 299 299 299 298 298 297 296 295 294 293 292 291 290 289 288 288 287 286 286 286 286 287 288 289 289 290 290 289 290 290 291 292 293 293 294 294 294
304 304 304 304 304 304 304 304 304 304 303 303 302 302 301 301 300 300 300 300 300 301 301 301 301 302 302 302 302 302 303 302 302 301 301 299 299 299 300 300 300 300 299 299 299 299 299 299 299 299 298 298 298 297 297 296 295 294 293 292 291 290 289 288 288 287 286 286 286 287 288 289 289 290 290 290 290 290 291 291 292 292 293 293 294 294
303 303 303 303 303 303 303 303 304 304 303 303 302 302 301 301 300 300 300 300 300 300 300 301 301 302 302 302 302 302 303 302 302 301 301 299 298 297 298 299 299 299 298 298 298 298 298 298 298 298 298 298 297 297 296 295 295 294 293 292 290 289 289 288 288 287 287 287 287 288 288 289 290 290 290 290 290 290 291 291 292 292 293 293 293 293
304 304 303 303 303 303 303 303 303 303 303 303 302 302 302 301 301 300 300 300 300 300 300 301 301 301 301 301 302 302 302 302 302 302 301 299 297 296 297 297 298 297 297 297 297 298 297 298 298 297 297 297 297 296 295 295 294 293 292 291 290 289 289 288 288 288 287 287 287 288 289 289 290 290 290 290 290 290 290 291 291 292 292 292 293 293
304 304 304 303 303 303 303 303 303 303 303 303 303 302 302 302 301 301 301 301 301 300 300 300 300 300 300 300 301 301 301 302 302 301 300 300 298 296 296 296 296 296 296 296 296 297 297 297 297 297 296 296 295 295 295 294 293 293 292 291 290 289 289 288 288 288 288 288 288 288 289 289 290 290 290 290 290 290 290 291 291 291 292 292 292 292
304 304 304 304 303 303 303 303 303 303 303 303 303 303 302 302 302 302 301 301 301 300 299 299 298 298 298 298 299 299 300 301 301 300 300 300 297 295 295 295 295 295 294 294 295 296 296 296 296 295 295 295 294 294 294 293 293 292 291 290 290 289 289 289 288 288 288 288 288 289 289 290 290 290 290 290 290 290 290 290 290 291 291 291 292 292
304 304 304 303 303 303 303 302 302 302 303 303 303 303 302 302 301 301 300 300 299 299 298 297 296 296 296 295 296 297 298 299 300 300 300 299 295 293 294 294 294 294 293 293 294 295 295 295 294 294 294 293 293 293 293 292 292 292 291 290 290 289 289 289 289 289 289 288 289 289 289 290 290 290 290 291 291 290 290 290 290 290 291 291 291 291
304 304 303 303 303 302 302 302 302 302 302 303 303 303 302 302 301 300 299 299 298 298 297 297 297 297 295 294 294 295 296 297 298 299 299 298 295 292 292 293 293 293 292 292 292 293 293 293 293 293 293 293 292 292 292 292 292 291 291 290 290 290 290 289 289 289 289 289 289 289 290 290 290 290 291 291 291 291 290 290 290 290 290 290 290 291
303 303 303 302 302 302 301 301 301 302 302 302 303 303 302 301 300 299 298 298 298 297 297 297 297 297 295 294 294 295 295 296 297 298 298 298 296 293 291 292 292 292 291 290 290 291 291 291 292 292 292 292 292 292 291 291 291 291 290 290 290 290 290 290 290 289 289 289 289 289 290 290 290 291 291 291 291 290 290 290 290 290 290 290 290 290
302 302 302 301 301 301 301 301 301 301 302 302 302 302 302 301 301 300 299 298 297 297 297 297 298 297 296 294 293 293 294 294 296 297 297 297 295 293 291 291 291 291 290 288 288 289 289 290 290 291 292 291 291 291 291 291 290 290 290 291 290 290 290 290 290 290 289 289 289 289 290 290 290 291 291 291 290 290 290 290 290 289 289 289 289 290
300 300 300 300 300 300 300 300 300 301 302 302 302 302 302 302 301 301 300 299 297 297 297 298 298 297 296 293 292 292 292 293 295 296 296 297 295 292 290 290 290 290 290 288 287 287 287 288 289 290 291 291 291 291 291 290 290 290 290 291 291 290 290 290 290 290 290 289 289 289 290 290 291 291 290 290 290 290 290 290 289 289 289 289 289 289
299 299 299 299 299 299 299 300 300 301 301 302 302 302 302 302 301 301 300 299 298 297 298 298 298 297 295 293 292 292 293 293 294 294 295 296 295 292 290 290 290 290 290 290 290 289 288 288 288 289 290 290 290 290 290 290 290 290 290 290 290 290 290 290 290 290 290 289 289 290 290 290 291 290 290 290 290 290 290 289 289 289 288 288 288 289
299 299 299 299 299 299 299 299 300 300 301 301 302 302 301 301 301 301 300 299 298 298 298 298 298 297 295 294 294 294 294 294 293 294 295 296 294 292 290 290 290 289 290 291 293 292 290 288 287 288 289 289 290 290 290 290 290 290 290 290 290 290 290 290 290 290 290 289 289 290 290 290 290 290 290 290 290 290 289 289 289 289 288 288 288 288
298 298 298 298 299 299 299 299 299 300 300 301 301 301 301 301 301 301 300 299 299 298 298 298 297 297 296 295 296 296 295 294 294 294 295 295 294 291 290 290 290 289 289 290 292 292 291 289 287 287 288 288 289 289 289 289 289 290 290 290 290 290 290 290 290 290 290 289 290 290 290 290 290 290 290 289 289 289 289 289 288 288 288 287 287 288
298 298 298 298 298 298 298 299 299 299 299 300 301 301 301 301 301 300 300 299 299 299 299 298 298 297 296 295 295 295 295 294 295 295 295 295 294 292 290 290 289 289 288 289 290 290 289 288 287 287 287 287 288 288 289 289 289 289 289 289 289 290 290 290 290 290 290 289 289 290 290 290 290 290 289 289 289 289 289 289 288 288 287 287 287 288
298 297 297 297 298 298 298 298 298 299 299 299 300 300 301 301 300 300 300 299 299 299 299 299 299 298 297 296 295 295 294 294 294 295 295 295 294 292 290 290 290 289 288 288 288 288 287 286 287 287 286 286 286 287 288 289 289 289 289 289 289 289 289 290 290 290 289 289 289 290 290 290 290 289 289 289 289 289 289 288 288 287 287 287 288 288
297 297 297 297 297 297 297 298 298 298 299 299 299 300 300 300 300 300 300 299 299 299 299 299 299 299 298 298 297 296 295 295 295 295 295 295 294 293 291 290 290 289 289 289 289 288 287 286 286 287 287 286 285 286 287 288 289 289 289 289 289 289 289 289 289 289 289 289 289 289 289 289 289 289 289 288 289 289 289 288 288 288 287 287 288 288
297 297 297 297 297 297 297 297 298 298 298 298 299 299 299 300 300 300 299 299 299 299 299 299 299 298 298 298 298 297 297 296 296 295 295 295 294 294 292 291 290 290 290 289 289 289 288 286 286 286 287 286 285 285 286 287 288 288 289 288 288 289 289 289 289 289 289 289 289 289 289 289 289 289 289 289 289 289 289 289 288 288 288 288 288 288
296 296 296 296 296 297 297 297 297 297 298 298 298 298 299 299 299 299 299 299 299 299 299 298 298 297 297 297 297 297 297 297 296 295 295 294 294 294 293 291 290 290 290 290 290 289 288 287 287 286 286 287 286 285 286 286 287 287 288 288 288 288 288 289 289 289 289 288 288 288 289 289 289 289 289 289 289 289 289 289 288 288 288 288 288 288
296 296 296 296 296 296 296 297 297 297 297 298 298 298 298 298 298 298 298 298 298 298 298 297 297 297 296 296 296 296 296 296 296 295 295 294 294 294 293 292 290 290 290 290 290 290 289 289 288 288 287 287 286 285 285 285 286 286 287 287 287 287 287 288 289 289 289 288 288 288 289 289 289 289 289 289 289 289 288 288 288 287 287 287 288 288
296 296 296 296 296 296 296 296 296 297 297 297 297 297 297 297 297 297 297 297 297 297 297 296 296 296 296 296 296 295 295 296 295 295 295 294 294 293 293 292 291 290 290 290 290 290 290 290 290 289 288 287 286 285 285 285 285 285 285 285 285 286 286 287 288 288 288 288 288 288 289 289 289 289 289 289 288 288 287 287 286 286 286 286 286 287
295 295 295 295 296 295 296 296 296 296 296 296 296 296 296 296 296 295 295 295 295 295 295 294 294 295 295 295 295 294 294 294 294 294 294 294 294 293 293 292 291 291 290 290 290 290 290 290 289 289 288 287 286 285 284 284 284 284 284 284 284 284 285 286 287 287 288 288 288 288 288 289 289 289 289 288 288 287 286 285 285 285 285 285 285 285
295 295 295 295 295 295 295 295 295 295 295 295 295 294 294 295 294 294 293 293 292 292 293 293 293 293 293 293 293 293 293 293 293 293 293 294 294 293 292 292 291 291 290 290 289 289 289 290 289 288 288 287 286 285 284 284 284 284 284 284 284 284 284 284 285 286 288 288 288 288 288 289 289 289 289 288 288 287 286 285 284 284 284 284 284 284
295 295 295 295 294 294 294 294 294 294 293 293 293 293 293 294 294 293 292 291 291 291 291 292 292 292 291 291 291 291 292 292 292 292 293 293 293 292 292 291 291 291 290 289 289 289 289 289 289 288 288 287 286 285 284 283 283 284 284 284 284 283 283 284 284 286 287 288 288 288 288 288 289 289 288 288 287 287 285 285 284 284 284 284 284 284
295 295 294 294 293 293 293 293 292 292 292 292 292 292 292 292 292 292 291 291 290 290 290 291 291 290 289 288 288 289 290 291 291 291 292 292 292 291 291 291 290 290 290 290 289 288 288 288 288 288 287 287 287 286 284 284 284 284 284 284 284 284 284 284 284 285 286 287 288 288 288 288 288 288 288 288 287 286 286 285 284 284 284 285 285 285
295 294 293 292 292 291 291 291 291 291 291 291 290 290 290 290 290 291 290 290 289 289 289 290 289 289 287 286 286 286 288 289 289 290 290 290 290 290 290 290 290 290 290 290 289 289 288 287 287 287 287 286 286 285 285 284 284 284 284 284 284 284 284 284 284 285 286 287 288 288 288 288 288 288 288 288 287 286 286 285 285 285 285 285 285 285
294 292 291 291 290 290 290 289 289 289 289 289 289 289 289 289 289 289 289 289 289 288 288 289 289 288 286 285 284 285 285 286 287 287 288 288 288 288 289 289 289 289 289 289 289 289 289 288 287 286 285 285 285 285 285 284 284 284 284 284 284 284 284 284 285 285 286 287 287 288 288 288 288 288 288 287 287 286 286 285 285 285 285 285 285 284
292 291 290 289 289 289 289 289 289 288 288 288 288 288 288 288 288 288 288 288 288 288 288 288 289 288 286 285 284 284 284 284 284 285 286 286 287 287 288 288 288 288 289 289 289 289 289 289 288 287 286 285 284 284 284 284 284 284 284 284 284 284 284 285 285 285 286 287 287 288 288 288 288 288 287 287 287 286 286 286 285 285 285 285 284 284
291 290 289 288 288 288 288 288 288 288 287 287 287 287 287 287 288 288 288 288 288 287 287 288 287 287 285 285 285 285 285 284 284 284 284 285 286 286 287 287 287 287 288 288 288 288 288 288 288 287 287 286 284 283 283 284 284 284 285 285 284 284 284 285 285 286 286 287 287 288 288 288 287 287 287 286 286 286 285 285 285 285 285 284 283 283
290 289 289 288 288 288 287 287 287 287 287 287 286 286 286 287 287 287 287 287 287 287 287 287 286 285 284 284 284 284 284 284 283 283 283 284 285 285 286 286 286 286 286 286 286 286 286 286 286 286 286 286 285 284 283 284 284 284 284 285 284 284 284 285 285 286 286 287 287 287 287 287 287 287 287 286 285 285 285 285 285 285 284 283 283 282
290 289 289 288 288 288 287 287 287 287 287 286 286 285 285 286 286 286 286 287 287 287 287 287 286 285 284 284 284 284 283 283 282 282 283 283 284 284 285 285 285 285 285 285 285 285 285 284 285 285 285 285 285 285 284 284 284 284 284 284 284 284 284 284 285 286 286 286 287 287 287 287 287 286 286 286 285 285 285 285 285 284 283 283 282 282
289 289 288 288 288 288 287 287 287 287 286 286 285 285 285 285 285 286 286 286 286 286 286 286 285 285 284 284 283 283 283 283 282 282 282 283 283 284 284 284 284 284 283 283 283 283 283 283 283 284 284 284 284 285 284 284 284 284 284 284 284 284 284 284 285 286 286 286 286 286 286 286 286 286 286 285 285 284 284 284 284 283 283 282 282 282
Wind_Speed
18 18 18 18 18 18 20 21 21 21 22 22 23 23 23 23 23 23 23 23 23 21 20 20 20 21 21 21 22 23 23 23 23 23 24 25 26 26 26 25 25 25 25 27 26 23 20 17 15 13 12 12 12 12 11 11 11 11 13 15 17 17 16 16 16 16 17 17 17 17 17 17 17 17 17 16 16 15 13 12 10 8 6 5 5 5
20 20 20 20 21 21 22 24 24 23 23 24 24 24 23 23 23 23 23 23 22 21 20 20 20 21 21 21 21 22 23 24 24 24 25 26 26 26 26 26 25 25 25 26 25 23 19 16 15 13 12 12 13 13 14 14 14 14 14 15 15 13 12 12 13 14 15 16 16 16 16 16 16 16 15 15 14 13 12 10 9 7 6 6 6 6
19 20 21 22 22 22 23 24 25 25 24 24 24 24 23 23 23 23 23 23 22 21 21 21 21 21 22 21 21 21 23 24 24 25 26 27 27 27 27 26 26 25 25 25 25 22 19 16 14 13 12 13 14 14 15 16 16 15 15 14 13 12 11 12 12 13 14 15 16 16 16 16 15 15 14 13 13 12 11 10 8 7 6 7 7 7
18 20 21 22 22 23 23 24 24 24 25 24 24 24 24 24 24 23 23 23 22 22 22 22 22 23 22 22 21 21 22 23 24 26 27 27 28 27 27 27 26 26 26 26 24 22 19 16 14 13 12 13 14 15 15 16 16 16 16 15 15 14 14 15 15 16 16 16 17 17 16 16 15 14 13 13 12 11 11 10 8 7 7 8 8 7
18 20 21 21 21 22 24 24 24 24 24 24 24 24 24 24 24 24 23 23 23 23 23 24 24 24 23 22 22 22 23 24 25 25 27 28 28 28 27 27 27 27 26 26 24 21 18 15 14 13 13 13 14 15 15 16 17 17 17 17 17 18 18 19 19 19 18 18 17 17 16 16 15 14 13 12 11 11 10 10 9 8 9 10 10 9
17 19 20 20 21 22 23 23 23 23 23 24 24 24 24 25 25 24 24 24 24 24 24 24 24 24 24 23 22 22 23 24 24 25 26 27 28 28 27 28 29 28 27 25 23 20 17 16 14 14 14 14 14 15 15 16 16 17 18 18 19 20 21 21 21 21 19 19 18 17 17 16 15 15 14 13 12 11 10 10 9 9 10 11 11 10
16 17 18 19 21 22 23 23 24 24 23 24 24 25 25 25 25 25 25 25 25 25 24 24 24 24 24 23 23 23 24 24 24 25 26 28 29 28 28 29 29 29 27 25 22 20 18 17 16 15 14 14 14 15 15 16 16 17 19 19 20 21 22 22 22 22 21 20 19 18 18 18 17 16 15 14 13 12 11 10 9 9 10 11 11 11
14 15 16 18 19 21 22 23 23 24 24 23 24 24 25 26 26 26 26 26 25 25 24 24 24 24 23 23 23 23 24 24 24 25 27 29 30 29 29 29 29 28 27 24 22 20 19 18 17 16 15 15 15 15 15 16 17 18 20 21 22 22 22 22 23 22 22 21 20 20 19 19 18 17 16 15 14 12 11 10 9 9 9 9 11 11
14 14 15 17 19 19 20 21 23 24 24 24 24 23 23 24 25 26 26 26 26 26 25 24 24 23 23 23 23 23 23 23 24 26 29 30 30 30 29 28 27 26 26 24 23 21 20 19 18 17 16 16 16 16 16 17 19 20 21 22 22 23 23 22 22 22 22 21 21 20 19 18 17 16 15 14 12 11 10 9 9 8 8 9 9 10
17 15 15 17 19 19 19 20 21 23 24 24 24 24 23 22 22 23 24 26 27 27 26 25 24 23 23 22 22 22 22 22 24 27 30 31 31 30 28 27 26 25 24 24 23 22 21 20 19 18 17 17 17 17 17 18 20 21 22 22 23 23 23 22 22 21 21 20 19 19 17 16 15 14 13 12 11 10 10 10 10 10 9 9 9 10
17 16 15 15 17 18 19 19 20 21 22 23 24 25 25 25 23 21 19 22 25 27 27 26 25 24 23 22 22 22 22 22 24 27 29 30 30 29 27 27 26 25 24 24 23 22 21 20 19 19 18 18 18 18 18 20 21 22 22 22 22 22 22 21 21 20 20 19 18 17 16 15 14 13 12 12 11 12 12 12 12 12 12 11 10 10
15 16 15 15 15 16 18 19 20 20 20 20 19 20 22 25 25 22 19 18 21 23 24 25 25 24 23 22 22 22 23 24 25 27 27 27 27 27 27 26 25 25 24 23 23 22 21 21 20 20 20 19 19 19 19 20 22 22 22 22 21 21 20 20 19 19 18 17 16 15 15 14 13 13 13 13 14 14 15 15 15 15 14 13 12 11
16 16 15 15 15 15 16 17 17 17 18 18 18 17 19 21 22 22 20 20 20 21 22 23 24 25 24 23 23 23 24 25 27 27 27 27 27 27 27 27 26 25 24 24 23 22 22 21 21 21 21 20 19 19 20 21 22 22 22 21 20 19 19 18 18 17 16 15 15 14 14 14 14 15 15 16 16 17 17 17 17 16 15 15 13 12
15 15 14 14 15 15 15 16 16 15 17 19 20 20 19 18 19 20 20 20 20 20 20 21 23 24 24 24 24 25 25 26 27 27 27 28 28 29 29 28 27 26 26 25 24 24 23 22 22 22 21 21 20 20 20 21 21 21 21 20 19 19 18 17 17 16 15 15 14 14 14 15 15 16 17 17 18 18 17 17 17 16 15 15 14 13
14 13 12 13 14 15 15 16 17 18 20 21 21 21 19 17 18 19 19 18 17 17 17 19 21 23 24 25 25 26 27 27 26 26 27 28 29 29 30 29 28 28 27 26 26 25 24 24 24 23 22 22 21 20 20 20 20 20 20 19 19 18 18 17 16 16 15 15 15 15 15 15 16 16 17 17 17 16 16 16 15 15 14 14 14 13
14 13 12 13 15 16 17 17 18 19 21 21 21 20 19 18 18 18 18 18 16 15 14 14 15 16 20 24 26 28 28 28 26 26 27 28 29 30 30 30 29 28 28 27 27 26 25 25 25 24 23 22 21 20 19 19 19 19 18 18 18 17 17 16 16 16 16 16 16 15 15 15 15 15 15 15 14 14 13 13 13 13 13 13 13 12
15 15 15 15 16 17 18 18 19 20 21 21 21 21 21 20 19 18 18 18 16 15 14 13 9 6 9 16 24 28 29 28 27 26 27 28 29 30 31 30 30 29 29 28 28 27 27 26 26 25 24 22 20 19 18 18 18 18 17 17 16 16 15 15 15 15 15 15 15 15 15 14 13 13 12 12 11 11 11 11 12 12 13 13 13 12
16 16 16 16 17 18 18 18 19 20 20 20 21 22 23 23 21 20 19 19 18 16 15 14 11 7 5 8 18 27 30 29 26 24 24 26 29 31 31 31 30 30 30 29 28 28 28 27 26 25 23 21 19 18 17 17 17 16 16 15 14 14 14 14 14 14 14 14 13 13 13 12 11 11 10 10 9 9 10 10 11 12 13 13 13 13
17 18 17 17 18 19 19 18 18 19 20 20 19 20 20 21 21 21 21 21 20 18 17 15 15 14 12 11 18 27 30 30 26 23 22 23 27 31 31 31 30 30 30 30 29 29 28 28 26 25 23 21 19 18 17 17 16 15 14 13 12 12 12 12 12 12 12 12 12 11 11 11 10 10 9 9 9 9 10 11 12 13 13 13 13 13
19 20 20 20 19 19 19 19 20 20 20 21 20 20 19 20 21 21 21 21 21 21 20 18 17 16 16 14 18 25 31 31 27 22 21 21 25 29 31 31 30 30 30 30 29 29 29 28 26 25 23 21 19 18 18 17 16 15 13 12 11 10 10 10 10 10 10 11 11 11 11 11 11 10 10 9 10 10 11 11 12 12 13 13 13 13
21 23 24 21 19 18 18 20 21 22 22 22 21 21 20 20 20 20 21 20 20 20 20 18 18 18 18 17 19 24 31 33 29 23 19 19 22 27 31 31 30 29 29 29 30 30 29 28 27 25 23 22 20 19 18 18 16 14 12 11 10 9 9 9 9 9 10 10 11 11 12 12 11 11 10 10 10 11 11 12 13 13 13 13 13 14
23 24 25 23 21 20 20 21 21 22 23 23 23 22 21 20 20 20 20 20 20 19 19 19 19 19 19 19 20 24 31 35 33 26 19 16 18 24 30 31 30 28 27 29 30 31 30 29 27 26 24 22 21 20 19 18 16 14 12 10 9 9 9 9 9 9 9 10 11 12 13 13 12 11 11 11 11 12 12 13 13 13 14 14 14 14
28 28 27 25 24 24 23 23 22 22 23 24 25 26 25 23 23 22 22 22 22 22 22 22 21 21 20 20 20 23 29 36 36 30 21 15 15 21 28 30 29 27 25 28 30 31 30 29 28 26 24 23 21 20 19 18 16 13 11 10 10 9 9 9 9 9 10 11 12 13 13 13 12 11 11 11 11 12 13 13 13 13 14 14 14 14
32 31 29 28 27 26 25 24 24 24 24 25 26 27 28 27 27 26 26 25 25 25 25 25 23 20 20 20 21 23 27 34 37 32 22 17 17 21 27 29 28 25 23 27 30 32 31 30 28 27 25 23 21 20 19 17 15 13 11 11 10 10 10 10 10 10 10 11 12 13 13 13 12 11 11 11 11 12 13 13 13 14 14 14 14 14
34 33 31 30 29 29 28 27 26 26 26 26 26 27 27 27 27 27 26 26 25 25 24 21 18 16 17 19 20 23 27 33 37 34 23 18 16 19 27 30 27 23 21 25 29 31 31 30 29 27 25 23 21 20 19 17 15 13 12 11 11 11 11 11 11 10 10 11 12 13 13 13 12 12 11 11 11 12 12 13 14 14 14 14 14 14
36 35 34 33 32 32 31 30 30 29 29 28 28 27 27 27 26 25 24 23 24 23 20 16 14 14 16 17 19 22 27 33 38 37 28 19 15 17 25 29 28 23 20 24 28 30 31 30 29 27 25 23 21 19 19 17 15 14 13 12 12 12 12 12 11 11 11 11 12 13 13 13 12 12 12 12 12 12 12 13 14 14 14 14 14 14
37 36 36 35 34 33 33 33 32 32 31 31 30 29 28 27 25 23 21 22 23 22 18 13 10 10 13 13 15 19 26 32 37 37 32 23 17 16 22 28 28 24 21 22 26 28 29 29 28 27 26 24 21 19 18 17 15 14 14 13 13 13 13 13 12 12 12 12 12 13 13 13 13 13 13 13 13 13 13 13 13 14 15 15 15 15
38 37 37 36 35 34 33 32 31 31 32 32 32 30 29 27 25 22 20 22 23 22 19 14 9 7 8 11 14 17 23 29 35 36 33 25 17 15 21 27 28 24 20 20 23 26 26 26 27 28 27 25 23 20 18 16 15 14 14 14 14 14 14 13 13 12 12 12 13 13 13 13 13 13 14 13 13 13 13 13 13 14 15 16 16 16
38 38 38 37 37 35 34 32 30 30 31 32 32 32 31 30 27 25 23 24 23 21 19 18 15 12 10 11 13 14 19 25 32 36 33 24 17 16 23 27 27 24 21 18 18 19 20 23 26 27 27 25 23 22 19 17 15 15 15 15 15 15 14 14 13 13 13 13 13 14 14 14 14 14 14 14 13 13 13 12 13 14 15 16 16 17
36 36 37 37 36 36 34 33 31 30 30 31 32 33 33 32 31 29 27 26 24 23 21 19 18 15 11 10 8 8 13 22 30 35 34 24 17 16 22 25 26 25 23 18 11 8 11 18 24 26 27 25 24 22 21 19 17 17 16 16 15 15 15 15 14 14 13 13 13 14 14 14 15 15 14 14 14 13 13 13 13 14 15 15 16 17
33 33 33 34 34 34 34 33 32 30 29 30 31 32 33 33 32 31 29 28 28 26 23 20 18 16 14 8 5 3 7 19 28 34 34 26 18 18 23 24 24 26 27 21 10 2 5 12 20 26 27 26 24 23 22 20 20 19 19 18 17 17 16 15 15 14 14 14 14 14 15 15 15 15 15 14 14 13 13 13 14 15 14 15 16 16
31 30 31 31 32 32 32 32 32 31 29 29 30 32 33 33 33 32 31 31 31 29 26 22 20 19 18 14 10 7 8 18 27 33 35 26 19 19 24 24 24 26 28 26 18 9 5 6 15 23 26 26 25 24 23 22 21 21 20 20 19 18 17 16 16 15 14 14 14 15 15 15 15 15 14 14 14 13 13 14 15 15 14 15 15 16
29 29 29 29 29 29 30 31 31 30 30 29 30 31 32 33 33 33 33 33 33 32 29 25 22 20 20 21 18 15 14 19 27 34 37 29 21 19 24 24 24 25 27 25 21 14 9 9 13 20 24 26 26 25 23 23 22 22 21 21 20 19 18 17 17 16 16 15 15 15 15 16 15 15 14 14 14 14 14 14 14 15 14 15 15 16
27 27 26 26 27 27 28 29 30 30 30 30 30 31 31 32 33 33 34 33 33 33 32 29 26 23 21 20 18 16 16 19 26 33 37 34 25 21 24 25 25 25 25 22 17 12 10 14 16 16 18 24 26 25 24 24 23 23 22 22 21 21 20 19 18 18 17 16 16 16 16 16 16 15 14 14 14 14 14 13 14 14 14 14 15 15
25 24 24 24 24 24 25 27 28 29 30 31 32 32 31 31 32 33 34 34 34 34 33 32 30 28 25 22 18 16 17 21 26 32 37 38 32 26 25 25 26 26 25 22 18 13 10 14 17 17 16 18 22 24 25 25 24 24 23 23 22 22 21 20 20 19 19 18 18 18 17 17 17 16 15 15 15 14 14 13 13 13 14 14 15 15
23 23 23 23 23 23 24 25 26 28 29 31 32 33 33 32 32 33 33 34 34 34 34 33 33 32 31 28 25 23 24 26 27 31 37 40 38 31 26 25 27 28 26 23 20 17 13 13 16 18 17 15 15 19 24 26 26 24 24 24 23 23 23 22 21 20 20 19 19 19 19 18 18 17 16 16 15 14 13 12 12 12 14 14 15 15
22 22 22 23 23 23 24 24 25 27 29 30 32 33 33 33 33 33 33 33 34 34 34 34 34 33 33 32 30 29 30 29 29 31 35 40 41 36 28 26 28 30 28 24 22 19 16 14 14 15 16 15 14 15 20 26 27 25 25 25 25 25 24 23 22 21 21 20 20 20 20 19 19 18 17 16 15 14 13 12 11 11 13 14 14 14
22 22 22 23 23 23 23 24 24 26 27 29 30 32 32 32 32 32 32 32 33 33 34 35 34 33 32 31 30 29 29 29 29 30 34 38 41 38 31 28 29 31 31 29 26 23 19 15 11 10 12 15 16 17 22 26 27 26 26 26 26 26 25 24 23 22 22 21 21 20 20 20 20 19 18 17 17 16 15 14 13 12 12 13 13 13
21 21 22 22 23 23 23 23 24 25 26 27 28 30 31 31 31 31 31 31 32 33 34 35 34 32 30 29 28 27 26 27 27 28 31 36 39 38 34 30 29 30 31 30 29 26 23 19 16 13 12 13 14 17 22 25 26 26 26 26 26 26 26 25 24 23 22 22 22 21 21 21 21 21 21 20 19 18 17 16 15 15 14 14 14 14
21 21 21 22 23 24 24 23 23 23 24 25 27 28 29 29 28 28 28 30 31 32 33 34 33 31 29 27 26 24 24 24 25 26 29 33 36 38 35 31 30 30 31 29 28 26 24 22 20 19 18 17 16 17 19 23 25 26 25 22 21 23 27 27 25 24 24 23 23 23 23 22 22 23 22 21 20 19 18 17 16 16 15 15 15 15
21 21 21 22 23 23 23 22 22 22 24 25 25 26 26 27 27 27 27 28 29 30 31 31 30 28 27 26 24 23 22 21 22 24 26 29 33 35 35 32 31 31 31 29 27 26 24 22 20 19 19 19 19 19 20 22 25 26 25 22 21 24 27 28 27 26 25 24 24 24 24 24 23 23 23 22 20 19 17 16 15 15 14 14 14 15
21 21 21 21 21 21 21 21 21 22 23 24 25 25 26 27 27 27 26 26 26 27 27 27 26 24 22 22 21 21 21 21 21 22 23 25 29 33 34 32 30 31 31 30 27 25 24 23 21 20 20 20 19 18 18 22 25 26 25 23 23 23 24 27 28 27 26 26 26 25 25 25 24 24 23 22 20 18 17 15 14 14 13 13 13 14
22 21 21 20 20 21 22 22 21 22 23 23 24 25 26 27 28 28 27 25 25 25 25 25 24 22 20 19 19 20 20 21 21 21 21 23 27 32 33 31 30 30 31 29 25 23 23 22 21 22 23 23 21 20 19 21 24 25 24 24 23 21 16 23 28 29 28 27 27 27 27 26 25 24 23 21 20 18 17 16 15 14 13 13 13 13
21 20 19 20 21 22 22 22 22 22 23 23 23 24 25 26 27 27 26 24 24 24 24 23 22 21 18 17 18 19 21 21 21 22 22 24 27 31 33 31 30 30 30 28 25 23 22 20 20 21 23 23 22 21 20 21 22 24 25 25 25 23 20 24 29 31 29 28 28 28 28 27 26 24 23 21 20 19 18 17 16 15 15 14 14 13
20 19 19 21 22 22 22 22 23 23 23 23 23 23 24 25 25 25 25 24 23 23 22 22 21 18 15 15 16 18 21 22 23 24 25 26 28 30 31 30 28 28 28 27 27 25 23 21 21 21 22 22 22 21 21 21 23 24 25 26 25 25 25 28 31 32 31 30 29 29 28 27 26 25 23 22 21 20 19 18 17 16 15 15 14 14
19 19 20 21 22 22 22 23 23 22 22 21 21 22 23 24 23 23 24 24 23 22 22 22 20 17 14 14 15 16 17 19 21 23 25 26 27 28 28 27 26 25 25 25 26 26 26 25 25 24 23 21 20 20 22 23 23 24 25 25 24 23 23 25 29 32 33 32 31 30 29 27 26 25 25 23 22 21 19 18 17 16 15 15 15 14
20 20 21 21 22 22 22 22 22 21 20 19 19 20 22 23 23 23 22 23 22 22 21 20 19 17 16 16 16 16 16 17 18 20 22 23 24 24 23 23 22 22 23 23 23 23 24 25 26 26 24 21 19 19 21 23 24 25 25 26 24 23 22 24 27 31 33 32 32 31 29 28 27 26 25 24 22 21 20 19 18 17 16 15 14 14
21 21 21 22 21 21 21 21 21 21 20 19 19 20 21 22 23 22 21 22 22 21 20 18 17 16 15 16 17 18 18 18 18 20 21 22 22 22 21 21 20 20 21 21 21 21 21 22 23 24 25 23 20 19 21 23 24 25 26 27 26 24 24 25 28 30 32 32 32 31 30 29 28 27 25 24 22 21 20 19 18 17 16 15 14 14
22 22 22 22 22 21 21 21 21 21 20 19 19 19 20 21 22 22 21 22 22 21 19 18 17 15 14 15 16 17 18 18 19 20 21 22 22 22 22 21 21 21 20 20 19 19 19 19 20 22 22 22 22 22 23 24 25 26 26 27 26 25 25 26 28 30 31 32 32 31 30 29 28 27 25 24 22 21 21 20 19 18 16 15 15 14
22 22 23 23 22 22 21 22 22 21 20 20 20 19 19 20 20 21 21 22 21 20 19 19 18 17 15 16 16 17 17 18 19 19 21 22 23 23 23 23 22 21 20 18 17 17 16 16 17 18 19 19 20 22 24 25 25 25 25 25 25 25 25 26 28 29 30 31 31 31 29 28 27 26 24 23 22 21 21 20 19 18 17 16 15 15
21 22 22 22 22 22 22 22 22 21 21 21 21 20 20 19 19 19 20 20 20 19 18 19 18 17 16 16 17 17 18 19 19 19 21 23 24 24 24 24 24 22 19 16 14 13 13 11 10 11 15 17 18 19 23 26 27 25 23 24 25 25 25 26 27 28 29 30 30 30 29 28 27 25 24 23 21 20 20 20 19 18 17 16 16 15
Wind_Direction
237 237 237 238 239 240 242 244 245 246 246 246 247 248 247 248 248 247 246 244 241 239 237 238 239 239 240 240 239 238 237 236 235 234 234 234 234 234 235 236 237 238 237 233 230 226 222 218 215 213 213 215 215 214 210 204 200 196 191 183 176 171 168 167 168 168 168 167 166 166 167 168 170 172 176 178 181 184 186 191 195 199 200 197 189 184
238 239 241 242 243 244 245 246 246 246 245 247 249 250 250 249 249 249 249 248 245 243 241 240 239 239 239 238 238 237 236 234 232 232 231 232 233 233 234 236 237 236 233 230 228 225 221 217 213 212 211 212 213 212 209 204 200 196 194 189 185 180 176 175 176 178 177 176 176 176 176 178 179 181 184 186 188 191 194 198 201 203 202 194 184 178
240 241 243 244 245 245 245 246 247 247 246 247 249 251 251 251 250 250 250 250 249 247 245 242 240 238 238 238 238 237 235 233 231 230 230 231 232 233 234 235 235 233 229 227 225 223 221 217 213 212 211 211 212 212 211 207 204 201 199 200 200 199 198 194 189 186 183 182 184 187 188 189 189 190 191 193 196 199 202 206 209 209 204 193 184 181
243 243 244 245 245 244 245 246 247 248 247 247 248 248 249 248 249 250 250 250 250 249 247 243 240 237 237 237 237 237 235 233 231 229 230 230 231 232 233 233 232 229 226 224 223 221 219 216 212 210 209 209 210 211 210 210 207 204 202 201 202 201 199 194 187 181 180 181 184 188 190 190 191 191 192 194 197 200 203 207 209 207 199 190 184 183
244 244 245 244 243 243 244 245 246 246 247 246 245 244 244 244 246 247 249 250 249 248 247 243 240 237 236 236 236 236 236 234 231 229 229 230 230 231 231 231 231 228 224 221 220 219 216 212 209 206 204 205 206 208 210 209 207 204 202 200 197 194 191 187 183 179 178 178 181 183 185 186 186 187 189 192 195 198 201 204 204 202 195 189 184 184
245 245 245 244 242 242 244 244 244 244 243 243 241 241 240 241 242 244 245 246 247 247 246 243 240 238 237 237 237 237 236 234 232 230 228 229 229 228 228 228 229 227 222 219 216 214 211 207 204 202 201 202 204 206 208 206 203 201 199 197 194 191 187 184 182 180 179 178 178 179 181 182 184 185 187 189 192 194 197 200 201 200 197 193 190 188
247 245 244 243 243 244 244 243 242 241 239 238 238 238 238 239 240 241 243 244 245 245 244 243 241 239 238 238 239 239 237 235 233 230 229 229 229 228 225 224 224 223 220 215 211 208 205 203 201 200 200 201 203 204 204 202 199 197 196 194 192 189 186 184 182 182 181 181 181 181 183 185 187 189 190 190 192 194 196 198 201 202 203 201 198 196
247 244 240 237 237 239 241 241 240 239 237 235 234 234 236 238 240 241 243 245 245 244 243 242 241 240 240 240 240 240 238 236 233 230 227 227 226 224 221 219 218 217 215 211 207 204 201 199 198 198 199 200 201 201 200 198 196 194 194 193 192 190 187 185 184 185 186 186 187 188 189 191 193 194 195 196 198 200 201 203 204 207 209 210 208 205
246 242 237 233 230 230 232 235 238 238 236 233 232 231 233 235 238 241 243 244 245 245 244 243 242 242 242 242 241 241 240 237 233 227 223 220 218 216 214 212 211 210 209 206 203 200 198 197 197 197 198 198 198 198 198 197 196 195 195 194 193 192 191 190 189 189 190 191 192 192 194 195 196 197 199 202 204 207 211 213 215 218 221 221 218 215
245 243 239 236 233 230 228 231 235 237 235 234 233 232 232 232 234 237 239 241 243 244 244 244 244 244 244 243 242 241 239 237 231 224 218 214 211 209 206 203 202 201 202 200 198 197 196 196 196 196 196 197 197 198 199 199 198 198 196 195 195 195 195 194 194 194 194 194 194 195 196 197 199 200 203 206 211 216 222 227 232 234 235 233 229 224
246 244 242 239 236 234 231 230 232 233 234 232 231 232 232 232 230 229 230 235 238 240 241 242 243 244 244 242 239 237 234 229 222 216 212 209 206 203 200 198 196 196 197 196 196 195 194 194 193 194 195 196 198 199 200 200 200 200 200 198 197 197 197 197 197 197 197 197 198 199 202 204 206 209 213 218 223 229 234 240 244 245 244 241 235 229
245 245 244 241 237 232 228 228 229 229 227 223 224 228 231 230 228 225 223 228 232 234 236 239 241 242 241 237 232 228 223 217 210 205 202 200 199 197 195 193 192 192 192 193 193 193 194 193 193 194 195 197 199 201 202 202 203 203 203 203 202 202 202 202 202 202 202 204 207 211 215 219 223 227 230 234 238 241 244 247 249 249 247 243 237 230
243 243 242 240 237 231 224 221 221 220 217 214 217 224 230 229 227 224 224 228 231 232 232 233 236 238 237 232 226 218 212 207 203 198 195 193 193 192 190 189 187 187 188 188 189 190 192 192 193 195 196 198 201 203 204 205 205 206 207 208 208 209 209 210 212 214 216 220 224 229 233 237 240 243 246 248 249 250 251 251 250 248 245 241 234 227
241 238 236 235 235 231 222 215 211 211 215 218 222 226 229 230 226 223 224 228 231 231 230 229 229 230 229 225 219 212 206 201 197 194 191 191 191 191 189 187 186 186 186 186 187 188 190 190 191 194 198 200 203 205 206 207 207 208 209 211 213 216 218 221 224 228 233 237 241 244 247 249 251 253 254 255 255 254 253 251 248 244 240 233 226 220
235 232 230 232 233 231 224 216 216 220 224 225 227 229 229 229 225 221 220 224 226 226 223 222 223 223 221 216 211 206 201 197 192 189 188 188 189 190 189 187 186 187 188 188 188 189 191 192 192 194 198 201 205 207 207 208 209 210 212 215 218 221 225 228 233 237 241 245 247 249 250 251 253 254 255 255 254 253 250 246 241 234 228 220 214 208
232 228 229 234 236 235 230 222 221 225 228 229 227 225 223 222 220 217 214 217 217 211 205 204 211 218 219 213 207 200 196 193 191 188 186 186 187 189 189 187 186 187 189 190 190 190 192 194 196 198 200 203 206 208 209 209 209 211 214 217 220 224 227 231 234 238 241 244 246 246 246 247 248 248 249 249 248 245 241 235 227 219 210 204 200 198
233 231 233 236 240 240 237 230 227 228 229 227 225 222 220 219 217 215 212 211 207 201 199 200 202 213 220 215 207 199 193 190 189 188 186 185 186 188 189 188 187 187 189 191 192 192 193 195 198 200 202 204 206 207 207 207 209 211 213 216 219 222 226 229 232 234 237 239 239 240 239 238 238 237 237 237 235 231 225 216 207 199 192 189 188 189
234 231 233 237 241 243 241 234 230 228 226 224 222 220 220 219 217 214 210 207 203 201 203 203 205 206 203 209 209 203 193 189 188 187 186 186 186 188 189 190 190 190 190 191 192 194 195 196 199 202 203 204 204 204 204 204 205 207 209 212 214 218 221 223 226 228 229 230 230 229 227 224 222 221 222 221 218 211 202 195 188 183 181 182 183 185
235 233 233 237 242 244 243 237 230 225 222 219 217 215 215 216 215 213 209 207 206 205 204 206 210 213 212 209 208 204 195 190 187 185 186 188 188 188 189 190 191 192 191 191 192 194 196 198 200 202 203 202 202 201 200 200 201 202 204 207 209 212 215 217 218 220 220 220 218 215 211 207 205 205 206 204 199 191 184 180 178 177 178 180 182 183
236 236 235 238 242 245 244 239 234 228 223 220 216 212 210 211 211 210 210 210 210 209 209 209 212 214 215 211 206 202 198 192 187 186 188 190 189 188 189 190 190 191 191 192 193 194 196 198 200 201 201 201 200 199 198 198 198 200 201 203 206 208 210 211 212 212 211 209 205 201 197 194 193 194 195 192 186 179 175 174 175 176 177 179 180 180
237 239 239 239 240 242 243 242 239 235 229 222 215 210 209 208 209 209 210 209 209 210 211 212 214 216 214 211 207 204 200 193 189 187 190 192 192 191 190 190 190 190 191 192 193 194 196 198 200 200 200 200 199 198 197 197 197 199 200 201 203 204 205 206 206 205 203 200 197 193 190 188 188 189 189 187 181 176 173 173 175 176 177 178 179 179
235 238 239 238 238 239 242 245 244 240 233 223 213 208 208 206 206 207 208 207 207 209 211 215 217 217 215 214 212 208 203 197 193 190 189 190 195 196 191 189 189 189 190 191 192 193 195 198 200 201 201 200 199 199 198 197 197 198 198 198 199 200 201 202 202 201 199 196 192 189 187 186 186 187 188 185 181 177 174 175 175 176 177 177 177 178
236 238 240 239 238 239 242 245 246 242 236 225 217 213 212 209 207 208 208 208 209 210 212 214 216 217 216 215 215 211 206 202 198 194 189 189 198 199 193 189 187 187 190 192 192 192 194 197 200 201 201 201 200 199 198 198 197 196 195 195 195 196 197 198 199 198 197 193 190 187 185 184 184 185 185 184 182 180 178 177 177 177 177 178 178 178
236 238 240 240 241 242 243 244 244 242 237 229 223 220 219 218 217 217 217 215 214 214 215 215 215 215 215 214 211 208 206 203 199 196 193 195 198 198 194 189 186 185 189 193 192 191 192 194 197 199 199 199 199 199 198 197 196 194 192 191 192 193 195 197 197 197 195 193 189 185 184 184 184 184 183 183 183 183 182 181 180 179 179 179 179 179
238 239 241 241 243 244 246 246 245 242 237 231 226 222 220 220 220 221 221 218 215 213 212 210 209 210 209 207 204 202 204 202 199 196 195 197 193 191 193 190 186 184 187 192 192 191 190 191 193 195 195 195 196 197 197 196 194 192 190 190 191 193 195 196 196 196 195 191 187 185 184 184 184 184 184 183 183 183 184 183 183 181 181 181 181 181
239 241 242 244 245 247 249 250 249 245 239 233 228 222 219 216 214 213 211 208 206 204 200 198 202 207 205 198 197 199 201 200 198 197 196 191 181 181 190 190 187 184 183 188 190 189 188 188 189 190 189 189 190 193 196 195 193 191 189 189 190 192 193 194 196 196 195 191 187 184 184 184 184 185 185 185 184 183 184 184 184 183 182 183 183 183
242 243 244 245 247 249 251 252 251 247 241 235 229 224 218 212 207 204 202 201 199 196 193 198 207 210 203 198 200 202 200 197 197 197 197 190 178 174 185 187 186 183 180 182 185 186 186 185 185 185 185 185 185 189 194 194 192 189 188 188 189 191 192 193 195 196 195 191 186 184 184 184 184 185 185 186 185 184 183 184 183 184 185 186 186 186
244 245 246 247 248 250 251 251 249 244 238 234 229 224 217 208 202 200 202 202 198 195 196 203 208 206 203 204 205 203 199 197 196 196 196 192 183 177 183 184 184 181 174 173 178 182 183 184 184 183 183 183 184 186 189 190 189 188 187 188 189 191 192 193 194 195 195 191 187 184 184 184 185 186 186 186 185 184 183 183 184 185 188 190 190 189
245 247 248 249 249 250 250 249 246 240 235 231 227 222 216 209 206 206 208 205 198 195 200 207 210 209 203 199 197 198 199 200 198 197 195 190 184 181 182 180 180 178 169 162 166 175 183 185 184 183 182 184 185 185 184 185 186 188 188 189 190 192 193 193 194 195 196 193 188 185 184 185 186 187 187 186 185 184 183 183 185 189 193 194 194 194
245 246 247 248 248 248 248 247 244 239 233 228 224 220 216 213 212 212 212 207 200 197 203 208 210 206 192 176 174 190 203 206 202 198 193 189 184 180 176 175 177 176 170 161 154 167 189 191 188 185 184 185 186 186 184 183 184 186 188 189 191 193 194 194 194 195 196 193 188 185 185 186 187 188 188 188 186 184 184 185 191 195 196 197 198 198
242 243 244 245 245 245 244 243 241 237 233 228 223 219 215 214 214 214 212 207 202 200 203 204 204 198 183 167 159 187 209 208 204 198 193 190 186 180 174 173 176 179 177 172 165 162 193 199 196 191 187 187 187 187 186 185 184 185 185 186 189 192 194 194 194 194 195 192 189 186 186 187 188 189 189 189 188 186 187 192 197 199 199 200 201 201
240 240 241 242 242 240 239 238 237 235 232 228 222 217 214 213 213 212 210 207 204 202 202 202 201 197 190 192 196 202 204 202 201 198 194 192 187 181 178 176 178 180 182 180 180 177 166 183 197 196 191 190 190 189 188 186 185 185 185 186 187 190 191 192 192 193 192 191 189 188 187 188 189 189 189 190 188 188 190 196 201 203 202 201 201 201
239 239 239 240 239 237 235 234 233 232 229 225 220 216 214 214 213 212 210 209 208 205 203 202 200 199 198 202 207 209 204 200 200 199 195 192 187 180 179 178 179 180 182 183 184 181 168 164 179 190 193 193 192 190 188 187 186 186 186 187 187 188 188 188 190 191 190 188 188 188 189 189 190 189 190 190 189 189 192 198 202 204 202 201 200 198
236 236 236 236 235 233 232 231 230 229 226 223 219 216 214 214 214 213 212 212 211 209 207 205 203 200 199 203 207 208 204 201 202 201 197 193 189 182 179 179 179 179 180 182 183 178 163 161 166 175 187 193 193 191 189 187 187 187 187 188 188 187 186 187 189 191 189 187 186 187 189 190 190 190 191 190 190 189 192 198 202 203 200 199 196 194
231 232 232 231 230 229 228 227 226 225 223 221 219 217 216 215 214 214 213 213 213 213 212 213 212 208 203 201 202 202 199 202 203 201 197 195 193 187 180 181 182 181 179 181 181 171 148 156 163 168 173 185 192 193 191 189 188 188 188 189 189 189 188 188 189 190 189 187 187 188 189 190 190 191 192 191 189 188 190 195 198 198 197 195 193 190
225 227 227 226 225 224 224 223 222 222 221 220 220 219 218 217 216 216 215 215 215 215 216 217 219 218 215 211 207 205 204 205 204 201 198 198 196 192 185 185 186 184 181 182 183 178 163 156 162 167 168 172 185 194 194 191 188 188 189 190 191 191 190 190 190 190 190 189 188 189 190 191 191 192 193 191 188 187 186 189 192 194 194 193 192 190
219 221 222 222 222 221 221 220 219 219 219 219 219 219 218 218 218 218 218 218 218 218 218 219 219 220 219 218 216 215 213 212 207 202 199 199 199 196 190 189 189 187 184 183 183 179 170 160 159 165 169 174 179 186 192 191 189 190 191 191 192 192 192 191 191 192 192 191 190 190 191 192 192 192 191 189 186 184 183 184 187 191 194 194 194 193
214 217 219 220 220 220 219 219 218 218 218 218 217 217 217 217 217 218 220 220 220 219 218 217 216 216 216 215 216 217 218 215 210 205 201 201 200 199 194 191 189 189 189 187 184 179 171 165 162 167 178 184 185 184 186 187 189 191 192 192 193 193 193 192 192 193 194 193 192 192 192 193 193 192 189 186 183 181 180 181 184 187 190 193 195 196
211 214 217 217 217 218 218 218 218 218 217 216 215 213 213 213 214 216 217 218 217 216 215 213 212 212 211 210 210 213 215 215 212 208 204 202 201 200 197 193 190 190 191 190 187 182 178 176 177 180 181 183 184 184 184 185 187 189 190 192 194 196 195 194 194 194 195 195 194 193 194 194 193 192 190 187 185 183 182 183 185 187 188 191 194 196
209 212 214 216 216 216 217 217 217 215 213 211 210 208 207 207 207 207 208 209 208 208 208 208 208 207 207 206 206 207 210 212 212 209 206 204 203 202 200 197 193 190 189 188 187 185 184 185 185 183 180 179 178 179 181 184 186 186 186 188 194 198 197 196 195 195 196 196 195 194 195 195 194 193 192 192 191 189 188 188 189 190 192 193 194 196
208 211 214 216 216 215 214 214 212 210 208 206 203 201 200 199 197 195 196 197 197 199 200 201 201 201 201 200 201 202 204 206 207 208 207 207 206 204 202 200 196 192 188 186 186 186 186 186 184 181 178 176 175 175 177 182 185 184 183 185 191 196 196 196 196 196 197 198 197 196 196 195 195 194 195 197 198 198 197 197 196 197 198 200 201 201
209 212 214 213 211 209 207 206 205 205 204 202 198 195 194 193 191 189 187 186 187 190 193 193 191 190 188 190 192 195 196 198 201 204 207 208 207 205 202 200 197 193 189 185 184 185 187 186 183 179 177 174 171 172 177 181 184 185 185 187 188 189 192 197 197 197 197 198 199 198 198 197 196 196 198 200 202 203 204 205 205 206 206 207 207 208
210 211 211 207 203 200 198 198 198 198 197 195 193 192 192 192 191 189 186 184 183 185 187 187 185 181 175 174 178 183 187 192 195 199 202 206 207 205 202 200 198 195 191 185 181 182 185 185 184 182 181 177 173 170 171 176 180 184 187 187 183 179 184 194 196 196 197 199 199 199 199 199 199 199 201 203 205 206 207 209 210 211 212 213 213 213
208 206 202 197 193 192 192 191 191 191 191 189 189 190 191 190 189 188 185 183 183 183 182 180 178 175 169 164 166 172 178 184 188 193 197 201 203 203 201 199 198 197 193 186 180 178 178 180 182 183 182 179 175 172 171 173 177 182 186 186 184 183 184 189 191 192 194 197 200 201 201 201 201 202 203 205 207 209 210 211 212 214 215 217 218 219
201 195 188 185 183 182 182 183 186 187 187 187 187 188 188 187 186 184 183 180 179 178 176 174 169 164 160 160 162 166 172 177 183 188 192 196 199 200 199 198 197 195 193 189 185 182 178 175 177 179 180 179 177 174 173 173 176 180 184 186 187 189 191 190 188 189 191 194 197 200 201 202 203 204 205 207 209 210 212 214 215 217 218 220 222 223
187 180 176 175 175 176 177 180 181 181 181 182 184 185 185 184 182 182 181 178 175 172 172 172 168 164 162 162 161 160 162 168 175 181 186 189 192 195 196 197 196 193 190 188 189 188 186 182 178 175 173 174 176 178 178 177 177 179 181 184 186 188 191 190 189 189 191 193 195 198 200 202 203 204 205 207 209 212 214 216 218 220 222 223 224 224
176 172 170 170 171 173 175 176 175 175 175 176 179 180 181 180 179 178 178 176 172 169 167 168 168 167 165 163 161 159 158 159 163 170 177 181 185 187 189 190 191 190 187 185 186 189 191 191 186 180 172 170 171 176 181 181 180 179 180 181 183 185 187 189 190 191 192 193 194 196 197 199 201 203 206 209 211 213 216 219 221 223 225 226 226 224
173 170 169 169 169 170 171 171 170 171 171 172 174 176 177 177 176 175 172 172 169 165 164 163 163 162 160 162 163 162 160 158 157 160 166 171 175 177 179 180 180 180 180 182 183 185 188 190 190 187 182 178 174 174 178 181 182 182 181 181 182 184 186 189 191 192 193 194 196 197 197 197 199 201 204 207 210 214 218 221 223 225 226 226 225 222
174 172 171 170 170 169 168 168 169 169 169 170 170 171 173 175 175 173 170 168 166 164 163 163 161 158 155 158 160 160 158 155 155 157 160 163 165 167 169 169 170 170 171 173 176 180 183 185 187 190 191 190 185 179 179 181 183 184 183 183 183 184 185 188 190 192 194 195 197 198 199 200 202 203 204 204 208 213 218 221 224 225 225 224 222 218
174 173 172 171 170 169 168 168 168 169 169 169 167 167 168 170 171 171 169 166 165 164 164 164 163 159 156 157 157 156 154 152 151 153 156 159 160 161 161 162 161 159 157 159 162 167 170 175 182 189 194 199 196 189 183 181 182 183 183 184 185 186 186 187 189 192 194 196 197 199 200 202 205 207 207 206 208 213 219 223 225 224 223 220 217 213
172 172 172 171 170 169 169 169 169 169 169 168 167 166 165 165 166 167 166 164 163 163 164 165 164 161 159 158 157 156 155 153 152 152 155 158 159 159 158 159 157 153 148 146 147 150 152 156 168 184 195 200 204 203 195 185 180 179 180 184 187 187 187 187 189 191 194 197 198 199 200 201 204 206 208 208 209 213 219 224 225 222 218 215 212 209